TimeICT,TemperatureF,Dew PointF,Humidity,Sea Level PressureIn,VisibilityMPH,Wind Direction,Wind SpeedMPH,Gust SpeedMPH,PrecipitationIn,Events,Conditions,WindDirDegrees,DateUTC
12:00 AM,80.6,71.6,74,29.80,6.2,NE,4.6,-,N/A,,Mostly Cloudy,50,2013-01-01 17:00:00
12:30 AM,80.6,71.6,74,29.80,6.2,East,8.1,-,N/A,,Mostly Cloudy,80,2013-01-01 17:30:00
1:00 AM,82,73,68,29.78,6,East,6.9,,,,Scattered Clouds,80,2013-01-01 18:00:00
1:00 AM,78.8,71.6,78,29.80,6.2,ENE,5.8,-,N/A,,Mostly Cloudy,70,2013-01-01 18:00:00
1:30 AM,78.8,71.6,78,29.80,6.2,ENE,3.5,-,N/A,,Mostly Cloudy,70,2013-01-01 18:30:00
2:00 AM,78.8,71.6,78,29.80,6.2,East,5.8,-,N/A,,Mostly Cloudy,80,2013-01-01 19:00:00
2:30 AM,78.8,71.6,78,29.77,5.6,East,4.6,-,N/A,,Mostly Cloudy,80,2013-01-01 19:30:00
3:00 AM,80.6,71.6,74,29.77,5.6,East,8.1,-,N/A,,Partly Cloudy,90,2013-01-01 20:00:00
3:30 AM,78.8,71.6,78,29.77,6.2,East,10.4,-,N/A,,Mostly Cloudy,80,2013-01-01 20:30:00
4:00 AM,80.6,71.6,74,29.77,6.2,ENE,8.1,-,N/A,,Mostly Cloudy,70,2013-01-01 21:00:00
4:30 AM,80.6,71.6,74,29.77,6.2,East,6.9,-,N/A,,Mostly Cloudy,80,2013-01-01 21:30:00
5:30 AM,80.6,71.6,74,29.77,6.2,ESE,10.4,-,N/A,,Mostly Cloudy,110,2013-01-01 22:30:00
6:00 AM,80.6,71.6,74,29.77,6.2,East,10.4,-,N/A,,Mostly Cloudy,100,2013-01-01 23:00:00
6:30 AM,80.6,71.6,74,29.80,5.6,East,9.2,-,N/A,,Mostly Cloudy,100,2013-01-01 23:30:00
7:00 AM,80,73,74,29.77,6,East,5.8,,,,Mist,90,2013-01-02 00:00:00
7:00 AM,78.8,71.6,78,29.80,5.6,ENE,5.8,-,N/A,,Mostly Cloudy,60,2013-01-02 00:00:00
7:30 AM,78.8,73.4,83,29.83,5.0,NE,3.5,-,N/A,,Mostly Cloudy,40,2013-01-02 00:30:00
8:00 AM,82.4,73.4,74,29.83,5.0,Variable,3.5,-,N/A,,Mostly Cloudy,0,2013-01-02 01:00:00
8:30 AM,82.4,71.6,70,29.86,5.6,East,8.1,-,N/A,,Mostly Cloudy,100,2013-01-02 01:30:00
9:00 AM,82.4,71.6,70,29.86,5.6,East,10.4,-,N/A,,Mostly Cloudy,100,2013-01-02 02:00:00
9:30 AM,84.2,71.6,66,29.86,5.6,East,13.8,-,N/A,,Mostly Cloudy,90,2013-01-02 02:30:00
10:00 AM,84.2,71.6,66,29.86,5.6,East,12.7,24.2,N/A,,Mostly Cloudy,90,2013-01-02 03:00:00
10:30 AM,84.2,71.6,66,29.86,5.6,East,13.8,-,N/A,,Mostly Cloudy,90,2013-01-02 03:30:00
11:00 AM,84.2,71.6,66,29.86,5.0,East,10.4,-,N/A,,Mostly Cloudy,100,2013-01-02 04:00:00
11:30 AM,84.2,73.4,70,29.86,5.0,East,10.4,-,N/A,,Mostly Cloudy,90,2013-01-02 04:30:00
12:00 PM,84.2,73.4,70,29.86,5.0,East,9.2,-,N/A,,Mostly Cloudy,80,2013-01-02 05:00:00
12:30 PM,86.0,73.4,66,29.86,5.0,East,8.1,-,N/A,,Mostly Cloudy,90,2013-01-02 05:30:00
1:00 PM,87,75,60,29.83,5,East,11.5,,,,Mist,80,2013-01-02 06:00:00
1:00 PM,84.2,73.4,70,29.83,5.0,East,12.7,-,N/A,,Mostly Cloudy,80,2013-01-02 06:00:00
1:30 PM,86.0,73.4,66,29.83,5.6,East,8.1,-,N/A,,Mostly Cloudy,100,2013-01-02 06:30:00
2:00 PM,87.8,73.4,62,29.80,5.0,East,8.1,-,N/A,,Mostly Cloudy,100,2013-01-02 07:00:00
2:30 PM,86.0,71.6,62,29.80,5.0,East,6.9,-,N/A,,Mostly Cloudy,100,2013-01-02 07:30:00
3:00 PM,86.0,71.6,62,29.80,5.0,Variable,5.8,-,N/A,,Mostly Cloudy,0,2013-01-02 08:00:00
3:30 PM,87.8,71.6,58,29.77,5.0,East,6.9,-,N/A,,Mostly Cloudy,90,2013-01-02 08:30:00
4:00 PM,86.0,73.4,66,29.77,5.0,ENE,6.9,-,N/A,,Mostly Cloudy,60,2013-01-02 09:00:00
4:30 PM,84.2,73.4,70,29.77,5.0,East,6.9,-,N/A,,Mostly Cloudy,80,2013-01-02 09:30:00
5:00 PM,86.0,73.4,66,29.77,5.0,East,5.8,-,N/A,,Mostly Cloudy,90,2013-01-02 10:00:00
5:30 PM,86.0,73.4,66,29.80,5.0,East,3.5,-,N/A,,Mostly Cloudy,100,2013-01-02 10:30:00
6:00 PM,86.0,73.4,66,29.80,5.0,Variable,1.2,-,N/A,,Mostly Cloudy,0,2013-01-02 11:00:00
6:30 PM,82.4,73.4,74,29.83,5.0,Calm,Calm,-,N/A,,Mostly Cloudy,0,2013-01-02 11:30:00
7:00 PM,84,76,72,29.80,5,Calm,Calm,,,,Mist,,2013-01-02 12:00:00
7:00 PM,82.4,73.4,74,29.83,5.0,NNW,4.6,-,N/A,,Mostly Cloudy,330,2013-01-02 12:00:00
7:30 PM,80.6,73.4,79,29.83,5.0,NNW,4.6,-,N/A,,Mostly Cloudy,330,2013-01-02 12:30:00
8:00 PM,80.6,73.4,79,29.86,5.0,Variable,2.3,-,N/A,,Mostly Cloudy,0,2013-01-02 13:00:00
8:30 PM,80.6,73.4,79,29.86,6.2,Calm,Calm,-,N/A,,Scattered Clouds,0,2013-01-02 13:30:00
9:00 PM,80.6,73.4,79,29.86,6.2,Calm,Calm,-,N/A,,Scattered Clouds,0,2013-01-02 14:00:00
9:30 PM,80.6,71.6,74,29.89,6.2,Calm,Calm,-,N/A,,Scattered Clouds,0,2013-01-02 14:30:00
10:00 PM,82.4,71.6,70,29.89,6.2,ENE,8.1,-,N/A,,Mostly Cloudy,60,2013-01-02 15:00:00
10:30 PM,80.6,73.4,79,29.89,6.2,ENE,5.8,-,N/A,,Mostly Cloudy,60,2013-01-02 15:30:00
11:00 PM,80.6,73.4,79,29.89,6.2,NE,5.8,-,N/A,,Mostly Cloudy,50,2013-01-02 16:00:00
11:30 PM,78.8,73.4,83,29.89,6.2,Calm,Calm,-,N/A,,Mostly Cloudy,0,2013-01-02 16:30:00